SCP
0 0 0 0 0 0 0 0 0 0 0 0 0 0 0 0 0 0 -0 0 0 0 0 0 0 0 0 0 0 0 0 0 0 0 0 0 0 0 0 0 0 0 0 0
0 0 0 0 0 0 0 0 0 0 0 0 0 0 -0 0 0 0 -0 -0 -0 0 0 0 0 0 0 0 0 0 0 0 0 0 0 0 0 0 0 0 0 0 0 0
0 0 0 0 0 0 0 0 0 0 0 0 0 -0 -0 -0 0 0 0 0 0 0 0 0 0 0 0 0 0 0 0 0 0 0 0 0 0 0 0 0 0 0 0 0
0 0 0 0 0 0 0 0 0 0 0 0 0 -0 -0 -0 0 0 0 0 0 0 0 0 0 0 0 0 0 0 0 0 0 0 0 0 0 0 0 0 0 0 0 0
0 0 0 0 0 0 0 0 0 0 0 0 0 0 -0 -0 -0 0 0 0 0 0 0 0 0 0 0 0 0 0 0 0 0 0 0 0 0 0 0 0 0 0 0 0
0 0 0 0 0 0 0 0 0 0 0 0 0 0 0 -0 -0 -0 0 0 0 0 0 0 0 0 0 0 0 0 0 0 0 0 0 0 0 0 0 0 0 0 0 0
0 0 0 0 0 0 0 0 0 0 0 0 0 0 0 0 0 -0 0 0 0 0 0 0 0 0 0 0 0 0 0 0 0 0 0 0 0 0 0 0 0 0 0 0
0 0 0 0 0 0 0 0 0 0 0 0 0 0 0 -0 -0 -0 0 0 0 0 0 0 0 0 0 0 0 0 0 0 0 0 0 0 0 0 0 0 0 0 0 0
0 0 0 0 0 0 0 0 0 0 0 0 0 0 0 -0 -0 -0 0 0 0 0 0 0 0 0 0 0 0 0 0 0 0 0 0 0 0 0 0 0 0 0 0 0
0 0 0 0 0 0 0 0 0 0 0 0 0 0 0 0 -0 -0 0 0 0 0 0 0 0 0 0 0 0 0 0 0 0 0 0 0 0 0 0 0 0 0 0 0
0 0 0 0 0 0 0 0 0 0 0 0 0 0 -0 -0 0 -0 0 0 0 0 0 0 0 -0 0 0 0 0 0 0 0 0 0 0 0 0 0 0 0 0 0 0
0 0 0 0 0 0 0 0 0 0 0 0 0 -0 0 0 0 -0 -0 -0 0 0 0 0 0 0 0 0 0 0 0 0 0 0 0 0 0 0 0 0 0 0 0 0
0 0 0 0 0 0 0 0 0 0 0 0 0 -0 0 0 0 0 0 0 0 -0 0 0 0 0 0 0 0 0 0 0 0 0 0 0 0 0 0 0 0 0 0 0
0 0 0 0 0 0 0 0 0 0 0 0 0 0 0 0 0 0 0 -0 -0 -0 -0 -0 0 0 0 0 0 0 0 0 0 0 0 0 0 0 0 0 0 0 0 0
0 0 0 0 0 0 0 0 0 0 0 0 0 0 0 0 0 0 0 0 0 -0 -0 -0 -0 -0 -0 0 0 0 0 0 0 0 0 0 0 0 0 0 0 0 0 0
0 0 0 0 0 0 0 0 0 -0 0 0 0 0 0 0 0 0 0 0 0 0 -0 -0 -0 -0 -0 -0 0 0 0 0 0 0 0 0 0 0 0 0 0 0 0 0
0 0 0 0 0 0 0 0 0 0 0 0 0 0 -0 0 0 0 0 0 0 0 0 0 -0 -0 -0 -0 -0 0 0 0 0 0 0 0 0 0 0 0 0 0 0 0
0 0 0 0 0 0 0 0 0 0 0 0 0 0 0 0 0 0 0 0 0 0 0 0 0 0 0 -0 0 0 0 0 0 0 0 0 0 0 0 0 0 0 0 0
0 0 0 0 0 0 0 0 0 0 0 0 0 0 0 0 0 0 0 0 0 0 0 0 0 0 0 0 0 0 0 0 0 0 0 0 0 0 0 0 0 0 0 0
0 0 0 0 0 0 0 0 0 0 0 0 0 0 0 0 0 0 0 -0 0 0 0 0 0 0 0 0 0 0 0 0 0 0 0 0 0 0 0 0 0 0 0 0
0 0 0 0 0 0 0 0 0 0 0 0 0 0 0 -0 -0 -0 -0 -0 0 0 0 0 0 0 0 0 0 0 0 0 0 0 0 0 0 0 0 0 0 0 0 0
0 0 0 0 0 0 0 0 0 0 0 0 0 -0 0 0 0 0 0 0 0 0 0 0 0 0 0 0 0 0 0 0 0 0 0 0 0 0 0 0 0 0 0 0
0 0 0 0 0 0 0 0 0 0 0 0 0 -0 -0 0 0 0 0 0 0 0 0 0 0 0 0 0 0 0 0 0 0 0 0 0 0 0 0 0 0 0 0 0
0 0 0 0 0 0 0 0 0 0 0 0 -0 -0 -0 -0 0 0 0 0 0 0 0 0 0 0 0 0 0 0 0 0 0 0 0 0 0 0 0 0 0 0 0 0
0 0 0 0 0 0 0 0 0 0 0 0 0 0 0 0 0 -0 -0 0 -0 -0 0 0 0 0 0 0 0 0 0 0 0 0 0 0 0 0 0 0 0 0 0 0
0 0 0 0 0 0 0 0 0 0 0 0 0 0 0 0 0 0 0 0 0 -0 0 0 0 0 0 0 0 0 0 0 0 0 0 0 0 0 0 0 0 0 0 0
Wind_Speed_500mb
17 18 29 30 25 14 9 13 22 6 11 12 21 27 26 51 41 47 61 71 80 76 67 64 59 66 68 73 74 73 71 72 72 78 77 76 79 74 72 69 65 63 60 57
10 34 14 15 21 17 23 28 30 9 8 11 14 36 23 36 48 53 64 67 78 93 92 78 71 65 71 74 78 79 79 78 74 78 80 80 78 78 76 73 73 69 67 64
25 6 30 17 20 27 28 33 18 11 5 8 13 42 30 31 68 64 77 85 78 91 96 102 88 83 73 79 80 81 83 82 79 81 83 82 82 82 84 84 82 78 74 71
19 22 14 33 35 27 37 29 36 30 13 21 11 32 12 13 27 24 55 68 79 95 106 99 105 97 94 84 74 86 83 85 86 86 90 91 91 91 89 84 82 83 79 80
12 20 28 24 20 24 13 9 22 24 24 20 29 16 12 22 32 31 35 71 84 92 95 99 110 115 112 92 87 88 84 88 89 92 93 93 94 95 91 85 83 83 81 84
18 5 11 13 21 23 7 10 18 17 14 21 51 27 42 28 33 25 32 65 72 79 79 83 90 100 109 103 95 94 93 91 90 93 95 96 94 94 95 94 91 85 80 75
19 16 2 13 6 15 26 14 9 9 10 19 6 19 45 17 21 18 28 54 65 55 61 69 78 78 88 99 103 96 96 94 92 91 98 95 93 92 92 96 94 85 81 78
14 14 40 15 23 10 13 16 8 8 7 6 4 21 14 16 41 54 51 65 76 68 65 55 63 60 71 81 87 93 102 105 101 94 93 93 91 95 93 97 89 82 82 75
13 12 6 12 13 24 12 22 21 11 5 5 11 17 13 19 26 25 47 62 67 62 61 58 68 72 66 67 73 83 85 89 96 98 93 94 94 94 95 91 83 83 79 75
6 9 10 15 13 19 10 13 9 13 16 13 11 12 16 14 25 20 19 25 43 46 48 48 56 63 63 69 61 65 69 74 90 96 97 97 93 90 88 91 88 82 76 74
13 5 4 22 27 35 14 8 9 5 6 9 6 12 15 27 18 15 16 29 41 53 55 43 45 56 59 60 52 51 63 67 76 90 92 94 94 90 86 88 88 84 76 69
23 4 6 20 1 13 26 18 17 7 8 7 4 23 3 15 16 12 22 30 30 51 49 44 44 43 33 46 63 52 51 63 65 72 81 84 84 84 82 82 84 83 77 70
22 9 6 4 7 6 15 28 29 26 3 18 6 21 7 2 10 29 27 26 39 52 56 56 50 43 32 26 46 53 49 50 58 60 65 73 75 78 78 76 75 74 73 69
41 8 8 11 4 6 16 24 33 26 11 32 32 57 40 33 29 29 56 59 50 48 48 74 61 53 43 36 41 47 46 43 47 50 59 65 68 67 66 64 64 65 65 64
11 11 14 12 8 7 3 19 27 27 41 20 58 39 48 36 18 35 51 58 52 57 50 56 78 59 48 43 41 41 48 47 46 48 52 55 52 53 55 57 58 58 60 62
5 5 5 7 8 18 13 22 22 44 42 37 50 58 66 65 62 51 63 74 67 65 71 68 68 65 55 47 40 38 39 40 43 44 47 46 47 47 48 49 51 54 57 60
15 11 5 4 5 5 12 38 44 33 37 41 37 69 66 24 27 45 55 62 72 71 80 71 63 62 56 39 31 28 32 34 34 35 38 41 42 44 43 43 47 49 52 55
12 12 6 5 4 4 10 4 19 36 41 41 46 58 53 40 58 77 76 58 81 95 90 79 65 53 53 29 26 23 28 32 34 34 34 33 32 31 33 35 36 39 43 46
6 8 6 8 8 13 18 10 13 16 25 34 44 52 69 55 43 79 72 72 81 81 83 86 75 58 53 37 29 23 21 24 28 29 28 28 28 28 27 27 29 34 37 40
4 6 8 6 10 15 11 11 8 10 13 11 22 34 25 29 13 27 56 64 64 63 62 64 57 63 55 38 42 32 29 28 26 28 29 28 26 24 24 28 33 36 39 40
6 2 14 8 7 15 15 15 6 5 6 12 28 29 32 10 15 62 76 70 64 67 65 50 49 51 52 44 47 46 38 38 36 36 35 32 30 32 37 38 40 40 40 40
17 14 8 5 4 20 15 5 13 4 13 28 30 27 42 51 63 60 72 73 68 55 46 46 47 51 53 53 56 51 46 46 47 45 43 41 39 41 43 42 39 38 38 39
6 13 11 20 14 11 7 3 6 9 16 25 42 50 47 56 63 68 71 69 69 55 45 37 37 39 43 46 50 54 54 54 55 55 53 48 44 41 40 38 37 39 40 40
9 12 6 6 11 18 18 10 2 11 20 26 33 43 46 52 58 62 61 61 61 58 41 33 31 33 36 38 42 47 50 49 53 56 53 47 41 38 36 35 36 39 40 39
8 16 11 9 5 11 13 11 11 24 27 29 33 39 44 47 52 56 58 50 52 54 45 33 28 27 29 31 32 35 39 43 40 41 42 40 39 37 37 38 37 36 33 27
13 12 11 9 4 2 6 6 28 32 33 38 44 50 44 45 49 50 50 44 41 45 44 37 30 26 27 29 30 31 33 34 34 35 36 35 36 38 38 38 34 25 18 20
Wind_Direction_500mb
202 200 217 214 219 246 281 238 238 219 221 214 240 251 244 267 270 261 265 266 259 251 246 254 260 257 253 248 244 242 238 235 232 232 233 234 237 237 237 236 237 237 236 236
187 231 213 201 216 232 228 249 262 263 210 202 279 268 246 261 260 254 263 262 262 263 252 251 250 254 251 251 248 245 242 237 235 235 236 237 239 241 242 242 241 238 237 238
209 158 201 213 207 219 236 240 250 262 321 250 293 282 266 250 254 254 249 253 254 255 257 248 247 245 248 248 246 246 245 242 239 238 237 236 240 242 242 241 241 239 239 240
236 231 209 212 222 199 234 222 242 258 272 264 137 284 250 271 270 236 242 250 249 251 256 250 246 242 241 242 247 247 247 246 244 239 239 237 238 239 243 243 243 243 242 243
208 169 197 213 214 198 236 161 222 229 239 263 244 266 295 217 250 260 240 253 253 255 256 253 248 244 237 239 245 249 249 248 246 243 241 242 240 244 247 249 249 248 246 244
215 207 197 222 201 215 108 235 273 264 261 227 243 219 268 241 246 256 255 254 263 267 263 261 256 250 248 239 244 247 248 247 246 246 242 241 243 244 245 247 248 248 249 247
210 208 181 177 168 194 191 197 241 232 203 250 210 207 245 297 283 235 250 265 272 270 270 266 255 250 246 240 241 247 247 245 245 245 242 241 244 246 246 248 248 249 250 250
197 196 216 181 202 166 202 207 219 208 213 285 37 227 260 239 250 260 270 274 273 273 281 274 263 256 253 250 247 246 246 245 242 242 244 243 243 243 244 246 248 248 249 251
183 241 73 199 161 166 181 220 221 271 161 245 216 284 270 246 270 284 264 266 271 286 288 274 272 269 260 247 248 244 246 241 238 240 242 240 242 242 244 247 248 248 249 250
190 279 182 184 138 207 184 134 165 202 247 242 250 254 237 298 278 280 298 303 317 318 310 295 290 280 266 253 256 249 243 240 238 240 240 240 242 245 245 244 245 247 249 249
179 246 200 142 199 190 171 191 192 184 188 224 288 252 207 224 247 246 286 344 338 336 334 326 292 286 260 246 249 250 242 241 239 237 238 240 240 241 242 243 244 245 249 249
173 149 216 202 12 200 211 188 205 232 202 226 208 264 354 241 233 267 295 305 342 345 343 342 330 305 276 259 241 250 246 242 241 240 237 237 240 241 242 243 242 244 246 249
163 214 210 153 304 331 210 212 214 222 301 233 245 266 345 229 308 295 290 295 322 339 341 346 338 323 306 274 253 253 248 244 240 239 236 235 237 240 242 243 243 243 246 248
164 147 211 200 163 136 213 207 220 216 226 252 244 263 259 270 295 301 295 291 303 317 323 326 330 329 314 295 268 252 249 245 238 235 235 234 234 238 242 244 242 241 242 244
166 175 192 201 168 102 333 224 219 221 237 232 257 259 268 276 272 282 288 293 299 301 310 317 319 323 318 301 276 260 249 243 240 236 231 230 231 233 234 236 237 237 239 242
165 176 156 208 255 212 224 234 251 231 239 250 261 274 262 272 281 282 283 284 285 287 296 302 303 311 318 307 290 265 249 240 234 226 223 223 227 228 229 232 235 239 241 244
159 164 138 228 194 152 278 237 232 242 242 243 248 254 271 284 283 269 269 274 284 285 289 294 296 308 315 311 291 267 242 235 229 223 220 220 223 227 229 232 235 240 244 246
134 141 142 168 65 247 243 52 217 216 233 228 245 259 269 267 273 285 278 285 284 285 286 287 295 300 310 301 286 258 239 235 227 217 216 215 217 222 226 231 236 240 243 245
136 126 137 158 196 302 294 195 166 176 246 233 244 254 260 278 281 279 286 281 280 287 287 282 283 286 282 292 277 265 247 232 225 209 203 205 209 217 223 231 235 238 239 239
55 92 123 162 175 223 238 295 181 112 275 4 309 261 287 298 274 276 310 323 311 310 308 301 291 277 278 279 257 262 256 241 231 223 209 207 211 220 233 236 239 239 238 236
137 187 198 192 231 283 249 254 228 146 245 30 20 10 352 329 315 308 314 323 320 305 303 301 296 283 272 262 253 251 249 247 242 237 230 221 227 235 242 245 248 248 247 245
167 161 186 150 192 266 230 20 202 68 341 335 342 341 330 318 321 326 327 335 330 328 309 296 288 278 269 258 247 244 250 244 241 241 239 238 239 245 248 252 252 250 246 243
212 183 181 187 210 213 159 175 187 349 332 331 327 326 330 327 327 326 328 333 333 331 324 307 287 272 262 254 245 240 233 240 240 241 240 240 243 246 248 251 251 246 244 245
237 182 202 118 211 224 218 218 211 345 341 333 327 323 325 320 321 323 328 334 332 328 326 316 300 282 260 251 249 244 240 237 230 238 239 237 240 244 247 249 245 243 243 244
196 146 177 266 284 264 248 233 296 321 323 318 321 328 326 326 319 320 320 327 330 323 318 310 296 280 269 257 250 245 243 240 243 238 232 231 234 236 237 235 234 237 239 239
192 184 187 222 100 199 137 259 311 317 321 317 319 318 325 328 322 320 316 317 322 319 313 307 296 279 267 261 257 253 251 247 243 241 234 228 226 223 217 215 208 206 201 184
Wind_Speed_850mb
17 18 29 30 25 14 9 13 22 6 11 12 21 27 26 51 41 47 61 71 80 76 67 64 59 66 68 73 74 73 71 72 72 78 77 76 79 74 72 69 65 63 60 57
10 34 14 15 21 17 23 28 30 9 8 11 14 36 23 36 48 53 64 67 78 93 92 78 71 65 71 74 78 79 79 78 74 78 80 80 78 78 76 73 73 69 67 64
25 6 30 17 20 27 28 33 18 11 5 8 13 42 30 31 68 64 77 85 78 91 96 102 88 83 73 79 80 81 83 82 79 81 83 82 82 82 84 84 82 78 74 71
19 22 14 33 35 27 37 29 36 30 13 21 11 32 12 13 27 24 55 68 79 95 106 99 105 97 94 84 74 86 83 85 86 86 90 91 91 91 89 84 82 83 79 80
12 20 28 24 20 24 13 9 22 24 24 20 29 16 12 22 32 31 35 71 84 92 95 99 110 115 112 92 87 88 84 88 89 92 93 93 94 95 91 85 83 83 81 84
18 5 11 13 21 23 7 10 18 17 14 21 51 27 42 28 33 25 32 65 72 79 79 83 90 100 109 103 95 94 93 91 90 93 95 96 94 94 95 94 91 85 80 75
19 16 2 13 6 15 26 14 9 9 10 19 6 19 45 17 21 18 28 54 65 55 61 69 78 78 88 99 103 96 96 94 92 91 98 95 93 92 92 96 94 85 81 78
14 14 40 15 23 10 13 16 8 8 7 6 4 21 14 16 41 54 51 65 76 68 65 55 63 60 71 81 87 93 102 105 101 94 93 93 91 95 93 97 89 82 82 75
13 12 6 12 13 24 12 22 21 11 5 5 11 17 13 19 26 25 47 62 67 62 61 58 68 72 66 67 73 83 85 89 96 98 93 94 94 94 95 91 83 83 79 75
6 9 10 15 13 19 10 13 9 13 16 13 11 12 16 14 25 20 19 25 43 46 48 48 56 63 63 69 61 65 69 74 90 96 97 97 93 90 88 91 88 82 76 74
13 5 4 22 27 35 14 8 9 5 6 9 6 12 15 27 18 15 16 29 41 53 55 43 45 56 59 60 52 51 63 67 76 90 92 94 94 90 86 88 88 84 76 69
23 4 6 20 1 13 26 18 17 7 8 7 4 23 3 15 16 12 22 30 30 51 49 44 44 43 33 46 63 52 51 63 65 72 81 84 84 84 82 82 84 83 77 70
22 9 6 4 7 6 15 28 29 26 3 18 6 21 7 2 10 29 27 26 39 52 56 56 50 43 32 26 46 53 49 50 58 60 65 73 75 78 78 76 75 74 73 69
41 8 8 11 4 6 16 24 33 26 11 32 32 57 40 33 29 29 56 59 50 48 48 74 61 53 43 36 41 47 46 43 47 50 59 65 68 67 66 64 64 65 65 64
11 11 14 12 8 7 3 19 27 27 41 20 58 39 48 36 18 35 51 58 52 57 50 56 78 59 48 43 41 41 48 47 46 48 52 55 52 53 55 57 58 58 60 62
5 5 5 7 8 18 13 22 22 44 42 37 50 58 66 65 62 51 63 74 67 65 71 68 68 65 55 47 40 38 39 40 43 44 47 46 47 47 48 49 51 54 57 60
15 11 5 4 5 5 12 38 44 33 37 41 37 69 66 24 27 45 55 62 72 71 80 71 63 62 56 39 31 28 32 34 34 35 38 41 42 44 43 43 47 49 52 55
12 12 6 5 4 4 10 4 19 36 41 41 46 58 53 40 58 77 76 58 81 95 90 79 65 53 53 29 26 23 28 32 34 34 34 33 32 31 33 35 36 39 43 46
6 8 6 8 8 13 18 10 13 16 25 34 44 52 69 55 43 79 72 72 81 81 83 86 75 58 53 37 29 23 21 24 28 29 28 28 28 28 27 27 29 34 37 40
4 6 8 6 10 15 11 11 8 10 13 11 22 34 25 29 13 27 56 64 64 63 62 64 57 63 55 38 42 32 29 28 26 28 29 28 26 24 24 28 33 36 39 40
6 2 14 8 7 15 15 15 6 5 6 12 28 29 32 10 15 62 76 70 64 67 65 50 49 51 52 44 47 46 38 38 36 36 35 32 30 32 37 38 40 40 40 40
17 14 8 5 4 20 15 5 13 4 13 28 30 27 42 51 63 60 72 73 68 55 46 46 47 51 53 53 56 51 46 46 47 45 43 41 39 41 43 42 39 38 38 39
6 13 11 20 14 11 7 3 6 9 16 25 42 50 47 56 63 68 71 69 69 55 45 37 37 39 43 46 50 54 54 54 55 55 53 48 44 41 40 38 37 39 40 40
9 12 6 6 11 18 18 10 2 11 20 26 33 43 46 52 58 62 61 61 61 58 41 33 31 33 36 38 42 47 50 49 53 56 53 47 41 38 36 35 36 39 40 39
8 16 11 9 5 11 13 11 11 24 27 29 33 39 44 47 52 56 58 50 52 54 45 33 28 27 29 31 32 35 39 43 40 41 42 40 39 37 37 38 37 36 33 27
13 12 11 9 4 2 6 6 28 32 33 38 44 50 44 45 49 50 50 44 41 45 44 37 30 26 27 29 30 31 33 34 34 35 36 35 36 38 38 38 34 25 18 20
Wind_Direction_850mb
202 200 217 214 219 246 281 238 238 219 221 214 240 251 244 267 270 261 265 266 259 251 246 254 260 257 253 248 244 242 238 235 232 232 233 234 237 237 237 236 237 237 236 236
187 231 213 201 216 232 228 249 262 263 210 202 279 268 246 261 260 254 263 262 262 263 252 251 250 254 251 251 248 245 242 237 235 235 236 237 239 241 242 242 241 238 237 238
209 158 201 213 207 219 236 240 250 262 321 250 293 282 266 250 254 254 249 253 254 255 257 248 247 245 248 248 246 246 245 242 239 238 237 236 240 242 242 241 241 239 239 240
236 231 209 212 222 199 234 222 242 258 272 264 137 284 250 271 270 236 242 250 249 251 256 250 246 242 241 242 247 247 247 246 244 239 239 237 238 239 243 243 243 243 242 243
208 169 197 213 214 198 236 161 222 229 239 263 244 266 295 217 250 260 240 253 253 255 256 253 248 244 237 239 245 249 249 248 246 243 241 242 240 244 247 249 249 248 246 244
215 207 197 222 201 215 108 235 273 264 261 227 243 219 268 241 246 256 255 254 263 267 263 261 256 250 248 239 244 247 248 247 246 246 242 241 243 244 245 247 248 248 249 247
210 208 181 177 168 194 191 197 241 232 203 250 210 207 245 297 283 235 250 265 272 270 270 266 255 250 246 240 241 247 247 245 245 245 242 241 244 246 246 248 248 249 250 250
197 196 216 181 202 166 202 207 219 208 213 285 37 227 260 239 250 260 270 274 273 273 281 274 263 256 253 250 247 246 246 245 242 242 244 243 243 243 244 246 248 248 249 251
183 241 73 199 161 166 181 220 221 271 161 245 216 284 270 246 270 284 264 266 271 286 288 274 272 269 260 247 248 244 246 241 238 240 242 240 242 242 244 247 248 248 249 250
190 279 182 184 138 207 184 134 165 202 247 242 250 254 237 298 278 280 298 303 317 318 310 295 290 280 266 253 256 249 243 240 238 240 240 240 242 245 245 244 245 247 249 249
179 246 200 142 199 190 171 191 192 184 188 224 288 252 207 224 247 246 286 344 338 336 334 326 292 286 260 246 249 250 242 241 239 237 238 240 240 241 242 243 244 245 249 249
173 149 216 202 12 200 211 188 205 232 202 226 208 264 354 241 233 267 295 305 342 345 343 342 330 305 276 259 241 250 246 242 241 240 237 237 240 241 242 243 242 244 246 249
163 214 210 153 304 331 210 212 214 222 301 233 245 266 345 229 308 295 290 295 322 339 341 346 338 323 306 274 253 253 248 244 240 239 236 235 237 240 242 243 243 243 246 248
164 147 211 200 163 136 213 207 220 216 226 252 244 263 259 270 295 301 295 291 303 317 323 326 330 329 314 295 268 252 249 245 238 235 235 234 234 238 242 244 242 241 242 244
166 175 192 201 168 102 333 224 219 221 237 232 257 259 268 276 272 282 288 293 299 301 310 317 319 323 318 301 276 260 249 243 240 236 231 230 231 233 234 236 237 237 239 242
165 176 156 208 255 212 224 234 251 231 239 250 261 274 262 272 281 282 283 284 285 287 296 302 303 311 318 307 290 265 249 240 234 226 223 223 227 228 229 232 235 239 241 244
159 164 138 228 194 152 278 237 232 242 242 243 248 254 271 284 283 269 269 274 284 285 289 294 296 308 315 311 291 267 242 235 229 223 220 220 223 227 229 232 235 240 244 246
134 141 142 168 65 247 243 52 217 216 233 228 245 259 269 267 273 285 278 285 284 285 286 287 295 300 310 301 286 258 239 235 227 217 216 215 217 222 226 231 236 240 243 245
136 126 137 158 196 302 294 195 166 176 246 233 244 254 260 278 281 279 286 281 280 287 287 282 283 286 282 292 277 265 247 232 225 209 203 205 209 217 223 231 235 238 239 239
55 92 123 162 175 223 238 295 181 112 275 4 309 261 287 298 274 276 310 323 311 310 308 301 291 277 278 279 257 262 256 241 231 223 209 207 211 220 233 236 239 239 238 236
137 187 198 192 231 283 249 254 228 146 245 30 20 10 352 329 315 308 314 323 320 305 303 301 296 283 272 262 253 251 249 247 242 237 230 221 227 235 242 245 248 248 247 245
167 161 186 150 192 266 230 20 202 68 341 335 342 341 330 318 321 326 327 335 330 328 309 296 288 278 269 258 247 244 250 244 241 241 239 238 239 245 248 252 252 250 246 243
212 183 181 187 210 213 159 175 187 349 332 331 327 326 330 327 327 326 328 333 333 331 324 307 287 272 262 254 245 240 233 240 240 241 240 240 243 246 248 251 251 246 244 245
237 182 202 118 211 224 218 218 211 345 341 333 327 323 325 320 321 323 328 334 332 328 326 316 300 282 260 251 249 244 240 237 230 238 239 237 240 244 247 249 245 243 243 244
196 146 177 266 284 264 248 233 296 321 323 318 321 328 326 326 319 320 320 327 330 323 318 310 296 280 269 257 250 245 243 240 243 238 232 231 234 236 237 235 234 237 239 239
192 184 187 222 100 199 137 259 311 317 321 317 319 318 325 328 322 320 316 317 322 319 313 307 296 279 267 261 257 253 251 247 243 241 234 228 226 223 217 215 208 206 201 184